SIRION PATHFINDER-2

Last updated on Fri Jul 10 2026 00:03:49 GMT+0000 (Coordinated Universal Time)

1 43759U 18099B 26189.65263305 .00002925 00000+0 16123-3 0 9994 2 43759 97.4246 238.2007 0007811 215.4457 144.6257 15.14744359415876
UTC large
Height (km)
Speed (km/s)
/
Latitude / Longitude
Inclination (degrees)
Orbital Period (minutes)
Azimuth
Elevation
Range (km)
Doppler Factor

Next 0 passes for location: London (51.5072 / 0.1276)

No passes found over London.
SIRION PATHFINDER-2